CAPE
35 34 28 31 43 58 39 39 37 34 38 45 33 54 72 83 68 2 0 0 34 49 0 0 0 0 0 0 0 0 0 1 1 1 0 0 0 1 0 10 7 12 0 0 6 10 0 68 97 38 10 2 1 0
37 27 40 58 63 66 33 32 46 61 57 48 32 50 37 50 68 45 0 0 0 40 0 0 0 0 0 0 0 0 0 40 21 2 5 1 22 1 27 13 0 9 27 2 0 0 4 71 13 4 0 0 0 0
39 55 61 66 63 53 50 47 63 52 41 32 30 37 45 52 32 22 1 0 1 30 1 0 0 0 0 0 0 3 0 4 12 0 1 0 1 1 1 6 13 14 8 17 21 1 0 34 24 1 0 0 0 0
54 68 60 75 89 66 54 56 59 51 61 71 68 86 54 50 25 33 6 0 0 2 17 0 0 0 0 0 0 0 0 0 0 0 2 0 0 0 0 0 2 3 4 3 3 2 3 1 19 6 0 0 0 0
63 67 64 79 76 57 55 59 64 61 59 50 50 63 55 54 53 31 1 0 0 1 3 0 0 0 0 0 0 0 0 0 0 8 17 3 1 2 0 0 0 21 33 6 12 8 11 3 9 0 0 0 1 0
73 65 65 70 67 58 52 48 57 62 58 65 62 44 39 39 76 31 26 0 0 0 61 1 0 0 0 0 0 0 0 0 0 9 19 11 0 15 1 6 0 3 0 0 0 1 0 0 0 0 0 0 0 0
53 39 44 59 65 64 58 51 48 50 53 53 40 25 18 44 31 10 0 0 0 0 0 0 0 0 0 0 0 0 0 1 0 0 7 0 0 22 0 0 0 0 0 0 3 0 9 0 1 0 0 0 0 0
38 34 48 50 53 50 43 33 34 38 38 38 32 28 27 44 16 15 0 20 10 15 25 1 0 0 0 0 3 0 16 9 3 4 13 9 4 0 5 1 0 0 2 6 3 0 0 0 0 0 0 0 0 0
49 43 41 36 29 31 25 24 26 26 23 31 42 38 31 19 4 8 45 28 3 5 0 0 1 0 1 18 13 4 3 1 6 1 20 7 0 10 9 1 1 0 0 0 0 0 0 0 0 0 0 0 0 0
44 41 35 27 26 20 23 17 17 18 19 45 6 0 0 0 3 17 0 19 0 1 4 4 1 0 9 9 5 0 0 0 9 0 0 8 1 18 3 1 0 0 0 0 0 0 0 0 0 0 0 0 0 0
22 17 17 17 19 27 15 24 33 56 0 0 0 1 0 17 5 3 0 8 0 1 0 0 0 0 0 15 10 0 0 0 2 0 0 0 4 8 1 2 0 0 0 1 0 2 2 1 0 0 0 0 0 0
16 14 14 22 28 24 27 35 6 1 2 0 2 12 15 8 1 1 0 0 1 0 0 0 0 0 2 0 2 0 0 0 0 0 0 0 5 1 0 0 2 0 0 1 2 1 2 1 2 0 0 0 0 0
15 11 26 24 20 31 33 0 0 1 6 8 10 4 2 1 0 0 0 1 0 0 0 0 3 6 5 0 0 0 0 0 0 0 0 1 2 0 0 0 0 0 0 0 0 0 0 0 0 0 0 0 0 0
0 3 11 30 32 26 3 0 7 17 0 0 0 1 0 0 0 0 0 0 0 0 0 0 1 13 0 0 0 0 0 0 0 0 0 1 0 0 0 0 0 1 1 0 0 0 0 0 1 0 0 0 0 0
3 2 15 27 32 4 1 13 0 0 0 0 0 0 0 0 0 0 0 0 0 1 0 1 0 0 0 0 0 0 0 0 0 0 0 0 0 0 0 0 0 0 0 0 0 0 0 0 0 0 0 0 0 0
0 8 19 12 16 14 0 0 0 0 0 0 0 0 0 0 0 0 0 0 0 0 0 0 0 0 0 0 0 0 0 0 0 0 0 0 0 0 0 0 0 0 0 0 0 0 0 0 0 0 0 0 0 0
0 3 8 4 2 0 0 0 0 1 0 0 0 0 0 0 0 0 0 0 0 0 0 0 0 0 0 0 0 0 0 0 0 0 0 0 0 0 0 0 0 0 0 0 0 0 0 0 0 0 0 0 0 0
4 6 1 3 0 0 2 4 0 0 0 0 0 0 0 0 0 0 0 0 0 0 0 0 0 0 0 0 0 0 0 0 0 0 0 0 0 0 0 0 0 0 0 0 0 0 0 0 0 0 0 0 0 0
3 2 5 0 0 0 0 0 0 0 2 0 0 0 0 0 0 0 0 0 0 0 0 0 0 0 0 0 0 0 0 0 0 0 0 0 0 0 0 0 0 0 0 0 0 0 0 0 0 0 0 0 0 0
12 0 0 0 0 0 0 0 0 0 0 0 0 0 0 0 0 0 0 0 0 0 0 0 0 0 0 0 0 0 0 0 0 0 0 0 0 0 0 0 0 0 0 0 0 0 0 0 0 0 0 0 0 0
3 5 7 0 0 0 0 0 0 0 0 0 0 0 0 0 0 0 0 0 0 0 0 0 0 0 0 0 0 0 0 0 0 0 0 0 0 0 0 0 0 0 0 0 0 0 0 0 0 0 0 0 0 0
0 0 0 0 0 0 0 0 0 0 0 0 0 0 0 0 0 0 0 0 0 0 0 0 0 0 0 0 0 0 0 0 0 0 0 0 0 0 0 0 0 0 0 0 0 0 0 0 0 0 0 0 0 0
0 0 0 0 0 0 0 2 0 0 0 0 0 0 0 0 0 0 0 0 0 0 0 0 0 0 0 0 0 0 0 0 0 0 0 0 0 0 0 0 0 0 0 0 0 0 0 0 0 0 0 0 0 0
0 0 0 0 0 0 0 0 0 0 1 0 0 0 0 0 0 0 0 0 0 0 0 0 0 1 0 0 0 0 0 0 0 0 0 0 0 0 0 0 0 0 0 0 0 0 0 0 0 0 0 0 0 0
0 0 0 0 0 0 0 0 0 0 0 0 0 0 0 2 0 0 0 0 0 0 0 0 0 0 0 0 0 0 0 0 0 0 0 0 0 0 0 0 0 0 0 0 0 0 0 0 0 0 0 0 0 0
0 0 0 0 0 0 0 0 0 0 0 0 0 0 0 0 0 0 0 0 0 0 0 0 0 0 0 0 0 0 0 0 0 0 0 0 0 0 0 0 0 0 0 0 0 0 0 0 0 0 0 0 0 0
0 0 0 0 0 0 0 0 0 0 0 0 0 0 0 0 0 0 0 0 0 0 0 0 0 0 0 0 0 0 0 0 0 0 0 0 0 0 0 0 0 0 0 0 0 0 0 0 0 0 0 0 0 0
0 0 0 0 0 0 0 0 0 0 0 0 0 0 0 0 0 0 0 0 0 0 0 0 0 0 0 0 0 0 0 0 0 0 0 0 0 0 0 0 0 0 0 0 0 0 0 0 0 0 0 0 0 0
0 0 0 0 0 0 0 0 0 0 0 0 0 0 0 0 0 0 0 0 0 0 0 0 0 0 0 0 0 0 0 0 0 0 0 0 0 0 0 0 0 0 0 0 0 0 0 0 0 0 0 0 0 0
0 0 0 0 0 0 0 0 0 0 0 0 0 0 0 0 0 0 0 0 0 0 0 0 0 0 0 0 0 0 0 0 0 0 0 0 0 0 0 0 0 0 0 0 0 0 0 0 0 0 0 0 0 0
0 0 0 0 0 0 0 0 0 0 0 0 0 0 0 0 0 0 0 0 0 0 0 0 0 0 0 0 0 0 0 0 0 0 0 0 0 0 0 0 0 0 0 0 0 0 0 0 0 0 0 0 0 0
0 0 0 0 0 0 0 0 0 0 0 0 0 0 0 0 0 0 0 0 0 0 0 0 0 0 0 0 0 0 0 0 0 0 0 0 0 0 0 0 0 0 0 0 0 0 0 0 0 0 0 0 0 0
0 0 0 0 1 0 0 0 0 0 0 0 0 0 0 0 0 0 0 0 0 0 0 0 0 0 0 0 0 0 0 0 0 0 0 0 0 0 0 0 0 0 0 0 0 0 0 0 0 0 0 0 0 0
CIN
-0 -0 -0 -0 -0 -0 -0 -0 -0 -0 -0 -1 -0 -1 -3 -3 -6 -1 -0 -0 -1 -0 -0 -0 -0 -0 -0 -2 -1 -0 -0 -1 -0 -1 -0 -0 -0 -7 -4 -10 -0 -0 -0 -3 -2 -0 -0 -57 -65 -11 -54 -59 -18 -14
-0 -0 -0 -0 -0 -0 -0 -0 -0 -0 -0 -0 -0 -0 -0 -0 -0 -9 -3 -0 -0 -0 -0 -0 -0 -0 -0 -0 -0 -0 -0 -0 -0 -0 -1 -0 -0 -1 -0 -0 -0 -0 -0 -12 -0 -0 -21 -42 -84 -44 -30 -0 -0 -0
-0 -0 -0 -0 -0 -0 -0 -0 -0 -0 -1 -0 -0 -0 -0 -0 -0 -1 -1 -0 -0 -0 -0 -0 -0 -0 -0 -0 -0 -2 -0 -8 -9 -0 -7 -0 -0 -0 -0 -1 -0 -0 -0 -4 -7 -14 -0 -28 -50 -11 -0 -0 -0 -0
-0 -0 -0 -0 -0 -0 -0 -0 -0 -0 -0 -0 -0 -0 -0 -0 -0 -0 -2 -0 -0 -3 -2 -0 -0 -0 -0 -0 -0 -0 -0 -0 -0 -0 -5 -0 -0 -0 -1 -0 -0 -0 -0 -0 -0 -0 -0 -27 -39 -97 -0 -0 -0 -0
-0 -0 -0 -0 -0 -0 -0 -0 -0 -0 -0 -0 -0 -0 -0 -0 -0 -4 -3 -0 -0 -0 -0 -0 -0 -0 -0 -0 -0 -0 -0 -0 -0 -2 -0 -0 -1 -8 -0 -0 -0 -1 -2 -12 -0 -0 -8 -25 -49 -0 -0 -0 -80 -0
-0 -0 -0 -0 -0 -0 -0 -0 -0 -0 -0 -0 -0 -0 -0 -0 -0 -0 -0 -9 -0 -13 -0 -6 -0 -0 -0 -0 -0 -0 -0 -0 -0 -10 -0 -0 -0 -3 -0 -1 -0 -7 -0 -0 -0 -1 -0 -0 -0 -48 -0 -0 -0 -0
-0 -0 -0 -0 -0 -0 -0 -0 -0 -0 -0 -0 -0 -0 -0 -0 -0 -3 -0 -0 -0 -0 -2 -0 -0 -0 -0 -0 -0 -8 -0 -19 -0 -9 -2 -3 -0 -1 -0 -0 -0 -0 -2 -3 -3 -0 -15 -40 -41 -0 -0 -0 -0 -0
-0 -0 -0 -0 -0 -0 -0 -0 -0 -0 -0 -0 -0 -0 -0 -0 -0 -1 -0 -15 -1 -8 -2 -0 -0 -0 -0 -0 -22 -0 -0 -0 -0 -0 -0 -0 -1 -0 -0 -1 -0 -0 -19 -22 -39 -0 -0 -0 -0 -0 -0 -0 -0 -0
-0 -0 -0 -0 -0 -0 -0 -0 -0 -0 -0 -0 -0 -0 -0 -0 -0 -3 -12 -5 -15 -13 -0 -0 -0 -0 -41 -13 -3 -0 -0 -0 -0 -0 -0 -0 -0 -0 -0 -0 -0 -0 -0 -0 -0 -0 -0 -0 -0 -0 -0 -0 -0 -0
-0 -0 -0 -0 -0 -0 -0 -0 -0 -0 -0 -0 -0 -0 -0 -0 -4 -15 -0 -0 -0 -0 -0 -0 -1 -0 -38 -21 -7 -0 -0 -0 -0 -0 -0 -0 -13 -0 -0 -0 -0 -0 -0 -0 -0 -0 -0 -0 -0 -0 -0 -0 -0 -0
-0 -0 -0 -0 -0 -0 -5 -1 -10 -3 -0 -0 -0 -0 -0 -3 -13 -0 -0 -0 -0 -0 -0 -0 -0 -0 -0 -4 -15 -0 -0 -0 -0 -0 -1 -0 -0 -0 -0 -0 -0 -0 -0 -0 -0 -0 -0 -0 -0 -0 -0 -0 -0 -0
-0 -0 -0 -0 -0 -0 -3 -9 -1 -0 -0 -0 -0 -3 -0 -2 -0 -0 -0 -0 -0 -0 -0 -0 -0 -0 -12 -0 -27 -0 -0 -0 -0 -0 -0 -0 -0 -0 -0 -0 -0 -0 -0 -0 -0 -0 -0 -0 -0 -0 -0 -0 -0 -0
-0 -1 -0 -0 -0 -1 -5 -1 -0 -13 -0 -6 -3 -5 -0 -0 -0 -0 -0 -0 -0 -0 -0 -0 -15 -3 -22 -0 -0 -0 -0 -0 -0 -0 -0 -0 -0 -0 -0 -0 -0 -0 -0 -0 -0 -0 -0 -0 -0 -0 -0 -0 -0 -0
-7 -22 -13 -0 -0 -0 -0 -0 -8 -5 -0 -0 -1 -2 -0 -0 -0 -0 -0 -0 -0 -0 -0 -0 -0 -7 -0 -0 -0 -0 -0 -0 -0 -0 -0 -0 -0 -0 -0 -0 -0 -0 -0 -0 -0 -0 -0 -0 -0 -0 -0 -0 -0 -0
-2 -6 -12 -0 -0 -2 -1 -1 -0 -0 -0 -0 -0 -0 -0 -0 -0 -0 -0 -0 -0 -0 -0 -23 -0 -0 -0 -0 -0 -0 -0 -0 -0 -0 -0 -0 -0 -0 -0 -0 -0 -0 -0 -0 -0 -0 -0 -0 -0 -0 -0 -0 -0 -0
-1 -0 -0 -0 -0 -0 -0 -0 -0 -0 -0 -0 -0 -0 -0 -0 -0 -0 -0 -0 -0 -0 -0 -0 -0 -0 -0 -0 -0 -0 -0 -0 -0 -0 -0 -0 -0 -0 -0 -0 -0 -0 -0 -0 -0 -0 -0 -0 -0 -0 -0 -0 -0 -0
-0 -0 -0 -0 -0 -0 -0 -0 -0 -0 -0 -0 -0 -0 -0 -0 -0 -0 -0 -0 -0 -0 -0 -0 -0 -0 -0 -0 -0 -0 -0 -0 -0 -0 -0 -0 -0 -0 -0 -0 -0 -0 -0 -0 -0 -0 -0 -0 -0 -0 -0 -0 -0 -0
-0 -0 -2 -0 -0 -0 -0 -1 -0 -0 -0 -0 -0 -0 -0 -0 -0 -0 -0 -0 -0 -0 -0 -0 -0 -0 -0 -0 -0 -0 -0 -0 -0 -0 -0 -0 -0 -0 -0 -0 -0 -0 -0 -0 -0 -0 -0 -0 -0 -0 -0 -0 -0 -0
-0 -9 -7 -3 -0 -0 -0 -0 -0 -0 -0 -0 -0 -0 -0 -0 -0 -0 -0 -0 -0 -0 -0 -0 -0 -0 -0 -0 -0 -0 -0 -0 -0 -0 -0 -0 -0 -0 -0 -0 -0 -0 -0 -0 -0 -0 -0 -0 -0 -0 -0 -0 -0 -0
-0 -1 -0 -0 -0 -0 -0 -0 -0 -0 -0 -0 -0 -0 -0 -0 -0 -0 -0 -0 -0 -0 -0 -0 -0 -0 -0 -0 -0 -0 -0 -0 -0 -0 -0 -0 -0 -0 -0 -0 -0 -0 -0 -0 -0 -0 -0 -0 -0 -0 -0 -0 -0 -0
-0 -1 -8 -0 -0 -0 -0 -0 -0 -0 -0 -0 -0 -0 -0 -0 -0 -0 -0 -0 -0 -0 -0 -0 -0 -0 -0 -0 -0 -0 -0 -0 -0 -0 -0 -0 -0 -0 -0 -0 -0 -0 -0 -0 -0 -0 -0 -0 -0 -0 -0 -0 -0 -0
-0 -0 -0 -0 -0 -0 -0 -0 -0 -0 -0 -0 -0 -0 -0 -0 -0 -0 -0 -0 -0 -0 -0 -0 -0 -0 -0 -0 -0 -0 -0 -0 -0 -0 -0 -0 -0 -0 -0 -0 -0 -0 -0 -0 -0 -0 -0 -0 -0 -0 -0 -0 -0 -0
-0 -0 -0 -0 -0 -0 -0 -0 -0 -0 -0 -0 -0 -0 -0 -0 -0 -0 -0 -0 -0 -0 -0 -0 -0 -0 -0 -0 -0 -0 -0 -0 -0 -0 -0 -0 -0 -0 -0 -0 -0 -0 -0 -0 -0 -0 -0 -0 -0 -0 -0 -0 -0 -0
-0 -0 -0 -0 -0 -0 -0 -0 -0 -0 -0 -0 -0 -0 -0 -0 -0 -0 -0 -0 -0 -0 -0 -0 -0 -0 -0 -0 -0 -0 -0 -0 -0 -0 -0 -0 -0 -0 -0 -0 -0 -0 -0 -0 -0 -0 -0 -0 -0 -0 -0 -0 -0 -0
-0 -0 -0 -0 -0 -0 -0 -0 -0 -0 -0 -0 -0 -0 -0 -0 -0 -0 -0 -0 -0 -0 -0 -0 -0 -0 -0 -0 -0 -0 -0 -0 -0 -0 -0 -0 -0 -0 -0 -0 -0 -0 -0 -0 -0 -0 -0 -0 -0 -0 -0 -0 -0 -0
-0 -0 -0 -0 -0 -0 -0 -0 -0 -0 -0 -0 -0 -0 -0 -0 -0 -0 -0 -0 -0 -0 -0 -0 -0 -0 -0 -0 -0 -0 -0 -0 -0 -0 -0 -0 -0 -0 -0 -0 -0 -0 -0 -0 -0 -0 -0 -0 -0 -0 -0 -0 -0 -0
-0 -0 -0 -0 -0 -0 -0 -0 -0 -0 -0 -0 -0 -0 -0 -0 -0 -0 -0 -0 -0 -0 -0 -0 -0 -0 -0 -0 -0 -0 -0 -0 -0 -0 -0 -0 -0 -0 -0 -0 -0 -0 -0 -0 -0 -0 -0 -0 -0 -0 -0 -0 -0 -0
-0 -0 -0 -0 -0 -0 -0 -0 -0 -0 -0 -0 -0 -0 -0 -0 -0 -0 -0 -0 -0 -0 -0 -0 -0 -0 -0 -0 -0 -0 -0 -0 -0 -0 -0 -0 -0 -0 -0 -0 -0 -0 -0 -0 -0 -0 -0 -0 -0 -0 -0 -0 -0 -0
-0 -0 -0 -0 -0 -0 -0 -0 -0 -0 -0 -0 -0 -0 -0 -0 -0 -0 -0 -0 -0 -0 -0 -0 -0 -0 -0 -0 -0 -0 -0 -0 -0 -0 -0 -0 -0 -0 -0 -0 -0 -0 -0 -0 -0 -0 -0 -0 -0 -0 -0 -0 -0 -0
-0 -0 -0 -0 -0 -0 -0 -0 -0 -0 -0 -0 -0 -0 -0 -0 -0 -0 -0 -0 -0 -0 -0 -0 -0 -0 -0 -0 -0 -0 -0 -0 -0 -0 -0 -0 -0 -0 -0 -0 -0 -0 -0 -0 -0 -0 -0 -0 -0 -0 -0 -0 -0 -0
-0 -0 -0 -0 -0 -0 -0 -0 -0 -0 -0 -0 -0 -0 -0 -0 -0 -0 -0 -0 -0 -0 -0 -0 -0 -0 -0 -0 -0 -0 -0 -0 -0 -0 -0 -0 -0 -0 -0 -0 -0 -0 -0 -0 -0 -0 -0 -0 -0 -0 -0 -0 -0 -0
-0 -0 -0 -0 -0 -0 -0 -0 -0 -0 -0 -0 -0 -0 -0 -0 -0 -0 -0 -0 -0 -0 -0 -0 -0 -0 -0 -0 -0 -0 -0 -0 -0 -0 -0 -0 -0 -0 -0 -0 -0 -0 -0 -0 -0 -0 -0 -0 -0 -0 -0 -0 -0 -0
-0 -0 -0 -0 -0 -0 -0 -0 -0 -0 -0 -0 -0 -0 -0 -0 -0 -0 -0 -0 -0 -0 -0 -0 -0 -0 -0 -0 -0 -0 -0 -0 -0 -0 -0 -0 -0 -0 -0 -0 -0 -0 -0 -0 -0 -0 -0 -0 -0 -0 -0 -0 -0 -0
Wind_Speed
19 19 18 17 17 17 17 16 16 15 14 13 12 13 11 10 9 5 3 5 4 3 6 6 4 3 3 2 1 4 5 2 3 2 2 4 3 3 4 6 5 4 6 6 5 4 10 4 7 2 4 3 2 1
18 18 16 18 18 17 16 16 17 16 15 15 14 13 12 12 10 6 3 3 4 4 5 3 11 9 7 7 4 3 2 2 2 2 2 4 3 2 4 3 2 6 2 2 8 6 3 4 3 3 4 2 2 2
21 19 19 18 16 17 18 17 16 16 17 17 17 16 16 15 13 11 3 3 3 2 6 5 10 14 10 10 7 3 3 4 3 3 1 2 5 3 3 3 5 4 4 2 1 4 7 6 5 1 5 4 3 3
22 21 19 18 18 18 18 18 17 18 19 18 18 17 17 17 15 15 4 3 3 1 4 7 3 5 6 7 9 9 6 2 3 3 2 3 3 3 3 6 6 3 6 5 3 4 8 9 7 13 9 7 2 8
21 20 19 19 18 19 20 19 19 19 20 20 20 19 18 17 17 8 3 4 4 4 3 4 8 17 13 8 10 8 7 4 2 2 3 4 3 2 3 3 3 3 2 3 3 9 6 12 7 12 11 3 6 8
20 21 21 21 20 21 21 21 21 21 21 21 20 20 17 15 15 4 4 4 6 4 3 4 5 6 5 7 7 6 6 4 3 3 3 3 4 2 2 2 6 6 11 7 4 7 11 12 7 4 10 12 10 11
21 20 21 21 20 22 23 23 23 22 23 22 20 20 19 16 8 4 5 3 15 7 2 4 5 5 5 4 4 3 5 3 3 3 4 3 3 1 2 4 6 9 11 11 9 2 6 12 4 11 14 12 13 13
19 20 21 22 23 22 24 25 25 25 24 22 22 22 20 16 10 5 2 8 12 4 2 3 5 4 5 3 2 3 3 4 4 3 2 2 2 3 3 6 9 13 11 11 8 8 7 7 7 9 11 8 9 9
21 22 23 23 23 25 25 24 23 23 22 22 22 17 7 5 4 4 8 12 2 2 5 4 3 4 1 3 2 2 3 2 3 3 3 3 2 2 6 8 11 13 12 13 9 12 12 12 10 6 6 6 7 7
23 23 22 23 24 23 19 18 18 18 16 15 15 3 3 4 14 14 5 1 1 3 3 4 3 3 1 1 2 1 2 2 3 5 3 3 2 6 7 10 9 10 12 14 10 13 13 12 10 7 8 7 7 6
26 27 24 23 24 17 17 16 15 14 24 4 4 3 4 20 4 2 4 5 3 4 5 5 8 3 2 3 2 2 2 1 1 3 4 3 2 3 8 10 10 10 10 11 11 9 10 9 9 6 8 8 7 7
29 28 20 17 16 16 15 14 27 6 4 7 9 8 5 3 3 5 6 4 6 7 4 5 5 6 1 3 3 0 2 1 4 1 2 2 3 7 8 10 10 10 10 12 12 12 11 10 8 4 5 6 6 8
10 10 15 17 18 18 18 31 20 15 18 7 4 4 4 2 6 6 6 4 4 4 4 2 1 4 2 3 2 1 2 5 1 3 2 3 4 6 7 6 8 9 9 9 11 10 9 8 9 6 6 6 6 7
11 15 17 22 20 23 30 24 25 17 4 3 4 7 4 5 4 5 5 5 3 2 5 4 3 3 2 3 3 4 5 1 2 1 2 2 4 5 5 6 6 7 7 6 7 8 8 8 7 7 6 5 6 7
11 19 21 24 27 32 30 27 10 3 3 3 3 4 2 2 2 1 2 2 3 0 3 4 4 3 2 3 2 1 2 3 2 1 1 1 3 4 5 4 4 4 3 4 4 3 5 6 5 7 7 6 8 9
23 20 14 30 31 30 29 14 5 4 4 3 6 3 2 4 3 3 3 2 4 2 1 4 3 2 2 4 3 3 2 1 3 1 1 1 2 3 2 3 3 3 2 2 2 3 5 5 5 5 8 8 8 9
20 9 33 32 27 24 19 7 4 6 3 4 3 3 3 5 4 3 3 3 4 2 3 3 4 6 1 3 3 3 1 2 2 1 1 0 2 2 3 3 3 2 2 3 3 5 4 5 5 7 9 8 10 10
10 13 21 20 14 10 5 3 4 4 6 4 4 3 4 5 2 4 4 5 3 2 3 3 3 5 3 3 1 2 3 4 2 1 1 1 1 1 1 2 2 2 3 3 4 2 3 5 6 6 7 8 9 9
7 6 11 10 6 6 4 3 4 5 4 3 2 2 3 3 5 4 5 6 4 5 4 4 7 3 1 2 1 2 2 2 3 4 2 2 1 0 2 3 3 4 3 2 1 2 2 3 3 4 5 5 6 5
14 12 13 9 6 4 5 3 4 5 3 2 3 4 3 3 1 4 8 7 5 4 7 6 2 1 2 2 1 2 2 3 4 2 2 2 1 3 1 2 2 2 4 4 4 5 5 5 4 5 5 5 6 6
11 3 3 3 3 6 5 3 4 3 4 4 3 3 3 2 3 4 4 5 6 5 3 2 1 2 2 1 2 3 4 4 2 2 2 1 1 2 2 2 3 2 2 3 4 5 6 4 4 5 6 6 6 6
2 10 2 4 5 5 4 3 5 3 4 3 3 3 3 3 3 3 2 6 4 2 1 2 2 1 2 3 4 4 5 5 5 3 5 5 3 3 3 2 2 3 4 4 4 5 5 4 5 5 6 6 7 7
6 5 5 4 6 5 1 1 4 2 5 2 2 4 3 3 2 0 4 3 2 2 4 2 3 7 5 4 6 8 8 7 5 4 3 4 4 4 3 3 2 4 4 4 4 5 5 6 6 6 6 6 7 7
8 6 5 4 5 2 2 3 3 3 3 3 3 3 3 3 2 4 4 2 2 3 5 7 5 4 3 6 5 5 5 3 4 5 5 3 4 4 3 3 4 4 4 5 5 5 5 5 6 5 5 6 6 6
10 8 5 6 5 5 5 3 3 4 4 3 3 2 3 3 3 3 2 2 2 4 5 4 5 5 4 2 3 4 7 5 3 4 5 3 3 3 4 4 4 4 4 5 5 5 5 4 4 5 5 5 6 7
9 4 5 3 4 4 3 3 3 3 3 3 2 1 3 4 5 3 2 1 1 2 2 3 2 2 4 4 3 3 4 4 3 4 5 5 4 3 3 4 4 4 3 3 4 5 5 3 5 6 6 7 8 7
6 4 3 4 3 3 5 4 4 5 5 3 1 3 4 5 3 2 1 2 1 0 1 2 3 4 4 4 4 4 4 5 5 3 3 5 6 6 5 3 4 3 4 5 4 5 6 6 6 6 5 5 5 5
4 4 5 5 6 5 5 4 4 3 1 3 4 5 4 3 2 1 1 2 4 4 4 5 5 5 5 5 4 4 3 3 3 3 4 5 5 5 5 5 6 10 5 4 4 4 5 5 5 5 5 5 4 4
4 1 5 7 6 6 5 3 3 2 3 2 5 3 3 3 3 3 2 2 3 5 5 4 4 2 4 4 6 6 6 4 3 6 6 5 4 5 3 4 4 4 4 4 7 5 6 5 5 5 5 4 3 4
1 2 5 4 6 5 4 2 1 3 2 3 5 8 5 3 4 4 4 5 6 5 1 2 2 4 3 3 3 6 7 7 6 3 3 2 2 3 4 4 3 3 3 4 5 5 8 6 7 4 4 4 4 4
3 4 6 5 5 1 2 1 4 6 5 6 4 5 3 3 3 4 5 3 4 4 5 5 5 4 4 4 3 2 3 5 6 7 5 3 3 4 5 5 4 2 2 3 3 3 3 3 3 4 4 5 4 5
5 4 5 5 3 1 1 3 3 3 0 3 1 2 3 4 3 4 3 3 5 4 2 3 4 2 0 1 2 2 4 1 2 3 5 3 3 4 4 4 4 3 4 4 4 3 3 4 3 4 4 4 4 6
6 8 5 5 4 1 3 4 3 3 4 3 2 2 1 4 3 4 2 1 4 5 3 3 2 1 3 4 4 2 2 1 2 5 6 5 5 5 3 4 4 4 6 5 4 4 6 7 4 5 5 5 4 3
Wind_Direction
236 237 239 239 239 240 247 250 246 247 254 254 254 245 238 232 232 157 224 170 198 225 271 246 269 276 315 300 27 319 2 347 330 85 221 248 238 277 302 266 291 251 178 174 187 170 254 351 310 205 217 216 176 172
240 245 241 245 243 240 241 244 243 243 244 245 249 242 239 236 229 189 212 207 169 225 270 321 278 248 224 224 189 236 205 101 283 4 28 311 304 312 299 285 326 353 350 225 163 207 267 295 232 252 280 239 311 320
237 231 238 240 242 249 250 247 246 241 237 243 246 242 237 229 236 221 190 176 113 237 270 254 252 252 230 217 185 184 249 195 181 186 166 265 285 353 314 295 302 268 297 218 280 39 331 323 320 182 269 250 269 307
232 239 241 239 245 245 239 236 239 242 238 238 240 237 233 230 237 228 196 171 121 349 286 280 265 255 241 213 201 212 220 308 138 134 172 229 255 249 273 271 286 287 329 314 4 319 322 2 293 270 278 268 74 62
236 238 238 241 247 248 244 242 242 239 237 237 239 235 236 227 228 222 171 192 169 167 273 281 299 272 258 210 210 200 179 158 160 193 225 220 237 251 273 291 277 199 226 48 293 244 201 232 245 255 275 20 91 97
234 237 239 244 246 246 245 244 244 239 234 234 232 233 228 231 209 147 205 193 191 156 259 286 277 267 230 193 200 202 199 191 170 176 240 242 255 210 262 267 286 298 318 316 277 299 271 286 295 39 72 74 67 73
242 242 242 245 246 247 245 242 240 237 233 229 225 226 232 224 182 162 189 216 174 120 233 281 288 262 249 199 180 152 168 172 152 200 219 222 243 93 226 233 280 325 313 314 341 347 16 19 17 80 83 75 75 73
246 247 249 250 249 249 249 246 241 237 231 225 217 212 216 202 156 213 289 130 141 109 195 256 265 306 177 144 172 144 176 160 180 206 224 244 268 198 254 11 25 2 359 19 18 36 54 41 72 107 115 122 91 82
250 251 249 251 251 253 251 245 231 227 225 216 200 187 164 189 158 168 123 149 86 148 189 212 223 252 156 120 91 180 150 170 175 202 211 187 221 234 29 30 24 15 15 347 358 30 27 40 22 21 112 106 102 106
252 254 253 261 248 251 233 215 210 213 218 205 127 116 153 173 144 99 24 262 140 208 243 227 162 271 141 134 136 261 159 194 205 219 148 208 139 78 44 58 41 24 16 12 14 14 2 8 359 357 34 66 103 115
266 261 255 246 246 204 209 198 195 169 111 101 137 114 119 147 91 146 162 190 195 234 210 222 188 204 257 116 161 173 220 190 219 250 169 215 120 50 24 34 34 31 22 16 15 18 13 2 352 10 63 75 92 103
253 250 231 209 184 189 192 171 131 119 130 150 113 107 127 116 164 178 179 177 193 219 197 185 205 188 253 92 95 247 180 92 246 180 228 156 73 30 18 18 30 27 18 11 10 6 3 3 2 32 73 89 98 111
185 194 198 188 184 183 152 142 140 134 134 116 82 123 155 169 173 202 151 187 205 209 192 152 128 148 56 69 94 158 102 228 32 62 173 62 48 26 17 12 12 20 23 16 5 1 2 16 21 38 73 80 96 101
234 215 197 181 172 154 146 137 139 152 94 109 141 134 177 189 209 188 185 181 218 173 132 121 93 124 153 80 139 113 239 279 276 220 142 68 29 4 355 16 8 10 30 23 8 0 6 15 32 35 51 73 100 103
181 189 171 159 152 145 140 134 99 75 72 74 87 144 156 178 90 85 48 68 1 299 99 74 58 83 60 106 198 154 194 234 37 197 93 15 360 4 359 12 11 29 34 23 356 7 16 14 26 47 43 66 89 97
61 109 113 133 139 137 118 84 36 70 49 56 35 62 90 85 30 38 28 65 360 350 85 61 101 91 233 150 162 199 221 39 240 137 230 335 21 345 355 1 51 82 84 64 27 30 36 30 36 55 59 61 73 89
64 58 97 102 104 105 98 74 36 58 79 52 35 8 31 65 53 44 24 351 316 345 84 123 148 200 155 140 75 30 136 219 155 209 233 146 84 3 28 38 54 106 93 78 52 48 42 37 49 67 70 64 74 77
88 102 101 108 115 80 56 52 88 80 68 41 69 9 52 31 11 26 351 346 7 31 50 79 37 49 53 90 12 344 343 357 33 317 238 271 49 341 57 92 42 89 97 85 97 79 60 64 76 79 86 87 86 82
110 105 102 84 100 99 88 42 68 90 77 77 89 44 66 80 37 19 5 360 42 24 60 42 59 53 69 41 2 307 323 326 306 300 188 266 8 324 115 63 72 58 94 96 136 91 80 80 88 91 84 88 88 86
97 57 55 53 49 86 81 47 64 78 87 106 53 34 56 53 360 25 26 19 31 48 45 44 63 262 138 268 300 280 290 309 320 341 296 305 312 70 86 141 140 116 92 86 67 85 90 82 80 87 92 96 101 98
86 163 218 7 70 63 93 95 66 110 105 82 155 75 88 34 28 20 28 2 54 36 54 29 323 276 312 16 343 333 317 320 315 28 342 334 315 98 50 31 124 73 87 83 90 68 68 85 95 95 96 93 95 98
139 196 92 31 75 58 70 23 114 130 82 135 143 86 75 59 36 21 40 42 62 347 343 293 282 293 78 32 358 337 319 16 25 33 20 22 16 39 26 25 73 85 82 83 93 93 87 85 92 96 101 105 105 108
34 43 35 44 70 65 127 326 89 106 98 140 98 79 56 69 95 79 71 57 66 354 335 318 342 80 67 28 24 21 15 25 30 42 29 35 38 34 41 39 54 93 97 88 94 97 95 96 98 104 104 108 111 108
29 51 38 51 66 106 64 36 61 73 80 64 72 87 91 112 119 62 73 66 6 345 5 15 22 86 58 34 28 14 357 17 30 31 17 26 50 33 37 50 64 72 89 105 107 104 100 102 107 106 110 111 109 111
70 359 46 13 360 62 64 45 54 57 71 65 74 63 103 104 78 70 70 85 16 7 359 37 47 36 47 37 10 4 6 24 32 50 3 10 52 57 48 47 66 75 96 107 106 113 115 117 123 122 118 119 118 113
73 332 61 20 347 72 40 75 67 89 90 67 79 9 60 71 67 65 67 141 310 357 346 8 31 55 51 30 25 13 354 353 14 57 17 9 21 34 51 58 54 42 53 89 122 132 137 126 119 119 115 117 116 114
70 5 357 12 356 66 64 49 42 65 61 69 337 37 68 70 86 90 88 16 93 275 22 29 56 66 55 30 28 25 20 40 57 60 41 41 43 40 44 42 23 353 36 65 84 108 116 112 112 115 115 110 123 129
67 66 68 318 54 25 84 59 50 54 34 337 58 45 94 109 98 65 102 332 91 59 89 61 55 59 58 42 22 11 8 21 45 47 57 53 44 39 29 25 28 43 43 55 76 82 95 104 109 111 116 123 117 120
50 11 75 33 42 46 42 71 35 13 337 41 102 99 95 39 7 53 14 30 38 68 64 51 27 48 61 48 41 32 15 18 77 80 64 46 27 25 10 29 31 26 23 47 87 99 105 104 104 103 100 103 99 103
3 79 88 54 63 55 352 97 339 291 28 97 95 100 72 44 6 1 43 48 65 74 57 61 18 48 43 44 32 38 29 30 27 58 80 51 358 331 10 19 25 21 31 60 59 56 68 71 87 71 73 72 77 81
89 66 69 56 81 28 155 104 73 61 42 60 45 87 112 143 15 20 31 34 80 67 64 46 38 23 59 39 38 52 25 11 13 23 26 23 9 5 3 7 1 29 66 70 74 81 75 58 84 96 100 105 102 110
43 87 118 98 101 253 360 66 86 111 104 73 346 68 21 61 53 331 337 70 63 58 40 104 75 3 328 116 66 67 99 62 13 14 26 19 9 356 356 352 358 29 64 63 57 75 107 115 101 102 109 113 130 137
72 79 55 86 74 195 272 93 40 72 37 57 351 142 117 128 159 224 300 80 144 158 161 180 195 163 141 156 146 148 126 155 19 40 45 50 47 27 11 5 12 43 79 71 58 78 83 96 85 96 106 107 110 129